Taurus 1
1 44530U 19059C   25136.83296387  .00006176  00000-0  11466-2 0  9993
2 44530  98.6050 275.1073 0010784 112.5075 247.7270 14.65549981300466
Duchifat 3
1 44854U 19089C   25136.33432015  .00035890  00000-0  75149-3 0  9994
2 44854  36.9423 149.1165 0001230 170.7385 189.3394 15.44519411299268
TO-108
1 44881U 19093C   25136.78350210  .00000964  00000-0  11763-3 0  9990
2 44881  97.7927 212.9305 0012648 313.9194  46.0976 14.85552603292544
FloripaSat 1
1 44885U 19093G   25136.84035406  .00005210  00000-0  44355-3 0  9990
2 44885  97.8140 224.3968 0009268 282.0281  77.9902 14.98207571293194
RS-44
1 44909U 19096E   25136.39646077  .00000028  00000-0  70269-4 0  9998
2 44909  82.5221 243.3431 0217182 352.4257   7.3580 12.79740440251590
UPMSat 2
1 46276U 20061E   25135.78241484  .00058487  00000-0  58314-3 0  9994
2 46276  97.2446 209.3905 0001514 160.1298 200.0021 15.65488949261581
SALSAT
1 46495U 20068K   25136.49677213  .00006760  00000-0  29552-3 0  9995
2 46495  97.8598 113.4217 0009679 241.4471 118.5790 15.22406124254862
CubeSX-Sirius-HSE
1 47951U 21022V   25136.74874772  .00368770  00000-0  13340-2 0  9990
2 47951  97.4143  49.0534 0006364 100.3089 259.8900 15.87683587230063
CubeSX-HSE
1 47952U 21022W   25136.69815906  .00365344  00000-0  12992-2 0  9995
2 47952  97.4151  49.2628 0005677 102.0551 258.1357 15.88045592230076
GRBAlpha
1 47959U 21022AD  25136.87773937  .00325821  00000-0  12460-2 0  9995
2 47959  97.4149  49.5325 0005819  99.4059 260.7870 15.86643976228925
TUBIN
1 48900U 21059X   25136.85442522  .00040569  00000-0  53217-3 0  9992
2 48900  97.6747 304.1936 0002347 312.5494  47.5563 15.58448221216349
LEDSAT
1 49069U 21073D   25136.75231795  .00059995  00000-0  80669-3 0  9996
2 49069  97.3895 217.3508 0011805 164.0828 196.0801 15.57619104207723
CUTE
1 49263U 21088D   25136.74073680  .00020472  00000-0  41900-3 0  9997
2 49263  97.4516 212.3204 0007127 333.6439  26.4446 15.46115555200747
TeikyoSat 4
1 49396U 21102B   25136.85595103  .00002678  00000-0  18004-3 0  9999
2 49396  97.4115 176.1398 0011830 208.4797 151.5786 15.07538500192970
Z-Sat
1 49399U 21102E   25136.76418596  .00003789  00000-0  21027-3 0  9995
2 49399  97.3814 179.0020 0018265 181.1311 178.9883 15.14201295193372
KOSEN 1
1 49402U 21102H   25136.64420944  .00006411  00000-0  30005-3 0  9998
2 49402  97.3720 182.1220 0016893 157.4117 202.7865 15.19953437193659
HO-113
1 50466U 21131B   25136.80199973  .00000580  00000-0  19512-3 0  9996
2 50466  98.5091 226.2731 0003964 190.3823 169.7285 14.40785022178025
IRIS-A
1 51044U 22002BN  25136.21404746  .00365238  52961-4  10849-2 0  9993
2 51044  97.3227 215.7748 0007586 230.9107 129.1494 15.92428313186012
Foresail-1
1 52766U 22057AL  25136.82936676  .00213579  00000-0  90236-3 0  9996
2 52766  97.6044 286.0745 0004044 276.1328  83.9481 15.84841594166129
SNUGLITE 2
1 52899U 22065F   25136.35025409  .00001171  00000-0  23677-3 0  9991
2 52899  98.1655 278.5652 0007667 179.9414 180.1790 14.63153077152949
IO-117
1 53106U 22080B   25051.21822557 -.00000003  00000-0  00000+0 0  9995
2 53106  70.1434 106.3440 0008542  48.0089 312.1297  6.42557744 61200
UmKA 1 (RS40S)
1 57172U 23091G   25136.83294386  .00006156  00000-0  33145-3 0  9994
2 57172  97.5591 192.3409 0015746  61.1056 299.1753 15.15086746103889
CubeBel-2 (EU11S)
1 57175U 23091K   25136.85714357  .00008922  00000-0  43044-3 0  9996
2 57175  97.5589 193.3712 0013665  70.1106 290.1600 15.18842369103955
VERONIKA
1 58261U 23174F   25136.76926748  .00110892  00000-0  11498-2 0  9991
2 58261  97.4128 221.6296 0006192 155.3963 204.7592 15.64292250 84954
ENSO
1 58470U 23185J   25136.88532047  .00049722  00000-0  78477-3 0  9997
2 58470  97.3742 211.2895 0008940 163.9754 196.1784 15.53324504 81357
EIRSAT-1
1 58472U 23185L   25136.86040073  .00089704  00000-0  98827-3 0  9995
2 58472  97.3706 212.7936 0007645 169.6590 190.4827 15.62798371 81456
SONATE-2
1 59112U 24043Q   25136.31537145  .00015869  00000-0  46913-3 0  9992
2 59112  97.5111 267.0264 0011418 195.3313 164.7586 15.34952145 66616
MO-122
1 60209U 24125G   25136.53026632  .00016839  00000-0  49112-3 0  9992
2 60209  97.2815 348.4300 0018127 219.3316 140.6612 15.35258135 48265
GRBBeta
1 60237U 24128C   25136.51155695  .00003293  00000-0  25662-3 0  9990
2 60237  61.9898 163.4617 0050030  51.9612 308.5979 15.02405222 46588
Curium One
1 60242U 24128H   25136.45345698  .00005598  00000-0  39951-3 0  9999
2 60242  61.9796 162.2982 0049995  47.5900 312.9405 15.04715258 46603
ROBUSTA-3A
1 60243U 24128J   25136.44882250  .00004993  00000-0  36270-3 0  9998
2 60243  61.9867 163.0630 0048573  45.3406 315.1628 15.04287363 46591
CatSat
1 60246U 24125J   25136.10207803  .00009309  00000-0  31570-3 0  9990
2 60246  97.2605 347.4935 0043238 179.1775 180.9544 15.29833054 46248
HYPERVIEW-1G (RS66S)
1 61772U 24199AP  25136.88231447  .00018297  00000-0  54739-3 0  9990
2 61772  97.3561   5.8028 0011786 277.7620  82.2284 15.34537659 73322
AO-123
1 61781U 24199AY  25136.81129294  .00006268  00000-0  23129-3 0  9993
2 61781  97.3574   4.8594 0014104 283.7015  76.2654 15.28037970 73255
ZIMSAT 2
1 61783U 24199BA  25136.87865391  .00032022  00000-0  82695-3 0  9996
2 61783  97.3541   6.2454 0011664 273.8973  86.0939 15.39008355 76506
HADES-R (SO-124)
1 62690U 25009CK  25136.45003639  .00031791  00000-0  11811-2 0  9991
2 62690  97.4093 217.3804 0004632 165.0938 195.0439 15.27476875 18461
HYDRA-T
1 62692U 25009CM  25136.17716052  .00033308  00000-0  12297-2 0  9997
2 62692  97.4090 217.1338 0004442 161.9922 198.1475 15.27675114 18424
JINJUSat 1B
1 63210U 25052A   25136.63872483  .00010995  00000-0  51155-3 0  9998
2 63210  97.4443  31.0720 0006095  60.7442 299.4402 15.20100717  9611
NUSHSAT 1
1 63211U 25052B   25136.24180200  .00011815  00000-0  54694-3 0  9998
2 63211  97.4431  30.6772 0006266  65.5524 294.6364 15.20255710  9556
TEVEL2-4
1 63213U 25052D   25136.25085658  .00011618  00000-0  54219-3 0  9996
2 63213  97.4347  30.6005 0005546  79.3424 280.8436 15.19984384  9556
TEVEL2-5
1 63214U 25052E   25136.25118343  .00011668  00000-0  54473-3 0  9992
2 63214  97.4348  30.6003 0005551  78.9372 281.2487 15.19970160  9557
TEVEL2-6
1 63215U 25052F   25136.25268006  .00011484  00000-0  53683-3 0  9993
2 63215  97.4349  30.5989 0005614  79.3302 280.8565 15.19930003  9553
TEVEL2-1
1 63217U 25052H   25136.19453288  .00011280  00000-0  53050-3 0  9998
2 63217  97.4319  30.5045 0005806  88.2702 271.9198 15.19722817  9545
TEVEL2-2
1 63218U 25052J   25136.78740197  .00011741  00000-0  55182-3 0  9992
2 63218  97.4323  31.0882 0005875  87.2305 272.9602 15.19734162  9637
TEVEL2-3
1 63219U 25052K   25136.52407909  .00011920  00000-0  56033-3 0  9991
2 63219  97.4324  30.8286 0005863  87.7083 272.4823 15.19724355  9597
TEVEL2-8
1 63237U 25052AD  25136.63657546  .00010849  00000-0  52750-3 0  9998
2 63237  97.4392  30.8828 0010415  97.2289 263.0130 15.18543764  9608
TEVEL2-9
1 63238U 25052AE  25136.24266875  .00010544  00000-0  51364-3 0  9999
2 63238  97.4394  30.4930 0010493  98.5912 261.6512 15.18483752  9545
TEVEL2-7
1 63239U 25052AF  25136.17816845  .00010668  00000-0  52019-3 0  9995
2 63239  97.4388  30.4252 0010485  99.1128 261.1293 15.18447031  9533
HYDRA-W
1 63490U 25052BL  25136.68935703  .00025717  00000-0  11246-2 0  9992
2 63490  97.4307  31.0754 0014759  94.9435 265.3487 15.21956442  9625
HADES-ICM
1 63492U 25052BN  25136.50090467  .00023620  00000-0  10447-2 0  9997
2 63492  97.4347  30.8753 0015032  99.4185 260.8751 15.21582304  9596
